Tracking 23762 objects as of 19-Oct-2021
HD Live streaming from Space Station
objects crossing your sky now

COSMOS 1703

Track COSMOS 1703 now!
10-day predictions
COSMOS 1703 is classified as:


NORAD ID: 16262
Int'l Code: 1985-108A
Perigee: 530.7 km
Apogee: 544.6 km
Inclination: 82.5 °
Period: 95.2 minutes
Semi major axis: 6908 km
RCS: 6.9173 m2 (large)
Launch date: November 22, 1985
Source: Commonwealth of Independent States (former USSR) (CIS)
Launch site: PLESETSK MISSILE AND SPACE COMPLEX (PKMTR)
aabbcc
Your satellite tracking list
Your tracking list is empty




NASA's NSSDC Master Catalog

Two Line Element Set (TLE):
1 16262U 85108A   21291.65065398  .00001174  00000-0  66818-4 0  9992
2 16262  82.4748 131.9972 0010059 219.1680 140.8823 15.11878794957846
Source of the keplerian elements: AFSPC